TimeEST,TemperatureF,Dew PointF,Humidity,Sea Level PressureIn,VisibilityMPH,Wind Direction,Wind SpeedMPH,Gust SpeedMPH,PrecipitationIn,Events,Conditions,WindDirDegrees,DateUTC
12:30 AM,33.8,30.2,87,30.08,2.5,NNW,10.4,18.4,0.01,Snow,Light Snow,340,2013-03-08 05:30:00
12:46 AM,33.8,30.2,87,30.08,2.5,NNW,9.2,17.3,0.01,Snow,Light Snow,340,2013-03-08 05:46:00
12:54 AM,33.1,30.0,89,30.09,2.0,NNW,11.5,-,0.01,Snow,Light Snow,340,2013-03-08 05:54:00
1:24 AM,33.8,30.2,87,30.08,3.0,NNW,9.2,-,0.00,Snow,Light Snow,340,2013-03-08 06:24:00
1:54 AM,33.1,28.9,85,30.08,4.0,NNW,12.7,19.6,0.00,Snow,Light Snow,340,2013-03-08 06:54:00
2:42 AM,33.8,28.4,81,30.06,2.0,NW,10.4,23.0,0.00,Snow,Light Snow,320,2013-03-08 07:42:00
2:46 AM,33.8,28.4,81,30.06,1.8,NNW,12.7,23.0,0.00,Snow,Light Snow,330,2013-03-08 07:46:00
2:54 AM,32.0,28.9,88,30.06,1.8,NW,11.5,19.6,0.00,Snow,Light Snow,320,2013-03-08 07:54:00
3:03 AM,32.0,28.4,87,30.05,2.0,NNW,10.4,-,0.00,Snow,Light Snow,330,2013-03-08 08:03:00
3:20 AM,32.0,28.4,87,30.05,2.5,NW,11.5,17.3,0.00,Snow,Light Snow,310,2013-03-08 08:20:00
3:52 AM,32.0,28.4,87,30.05,2.0,NW,9.2,-,0.00,Snow,Light Snow,320,2013-03-08 08:52:00
3:54 AM,32.0,28.9,88,30.05,2.0,NW,10.4,-,0.00,Snow,Light Snow,320,2013-03-08 08:54:00
4:54 AM,30.9,28.0,89,30.05,1.5,NW,10.4,19.6,0.00,Snow,Light Snow,320,2013-03-08 09:54:00
4:57 AM,30.2,28.4,93,30.05,1.5,NW,8.1,19.6,0.00,Snow,Light Snow,320,2013-03-08 09:57:00
5:22 AM,30.2,28.4,93,30.04,2.0,NW,10.4,-,0.00,Snow,Light Snow,320,2013-03-08 10:22:00
5:28 AM,30.2,28.4,93,30.04,1.8,NW,9.2,-,0.00,Snow,Light Snow,320,2013-03-08 10:28:00
5:37 AM,30.2,28.4,93,30.04,1.0,NW,8.1,-,0.00,Snow,Light Snow,310,2013-03-08 10:37:00
5:45 AM,30.2,28.4,93,30.04,0.8,NW,10.4,-,0.00,Snow,Light Snow,310,2013-03-08 10:45:00
5:47 AM,30.2,28.4,93,30.04,1.0,NW,6.9,-,0.00,Snow,Light Snow,320,2013-03-08 10:47:00
5:54 AM,30.9,28.0,89,30.05,1.0,NW,8.1,-,0.00,Snow,Light Snow,320,2013-03-08 10:54:00
6:25 AM,30.2,28.4,93,30.05,1.2,NW,11.5,17.3,0.00,Snow,Light Snow,320,2013-03-08 11:25:00
6:40 AM,30.2,28.4,93,30.05,1.0,NW,11.5,17.3,0.00,Snow,Light Snow,320,2013-03-08 11:40:00
6:51 AM,30.2,28.4,93,30.05,0.5,NW,6.9,17.3,0.00,Fog-Snow,Snow,320,2013-03-08 11:51:00
6:52 AM,30.2,28.4,93,30.05,0.5,NW,9.2,17.3,0.00,Fog-Snow,Snow,320,2013-03-08 11:52:00
6:54 AM,30.9,28.0,89,30.05,0.5,NW,10.4,17.3,0.00,Fog-Snow,Snow,320,2013-03-08 11:54:00
7:05 AM,30.2,28.4,93,30.05,0.5,NNW,10.4,17.3,0.00,Fog-Snow,Light Snow,330,2013-03-08 12:05:00
7:54 AM,30.0,28.0,92,30.06,0.5,NW,10.4,18.4,0.00,Fog-Snow,Snow,320,2013-03-08 12:54:00
8:34 AM,30.2,28.4,93,30.06,0.5,NW,12.7,17.3,0.00,Fog-Snow,Light Snow,320,2013-03-08 13:34:00
8:54 AM,30.9,28.0,89,30.06,0.5,NNW,10.4,18.4,0.00,Fog-Snow,Snow,330,2013-03-08 13:54:00
9:04 AM,30.2,28.4,93,30.06,0.5,NW,11.5,-,0.00,Fog-Snow,Snow,320,2013-03-08 14:04:00
9:12 AM,30.2,28.4,93,30.06,0.5,NNW,10.4,19.6,0.00,Fog-Snow,Snow,330,2013-03-08 14:12:00
9:24 AM,30.2,28.4,93,30.06,0.5,NW,10.4,-,0.00,Fog-Snow,Snow,320,2013-03-08 14:24:00
9:33 AM,30.2,28.4,93,30.06,0.5,NNW,10.4,-,0.00,Fog-Snow,Snow,330,2013-03-08 14:33:00
9:42 AM,30.2,28.4,93,30.07,0.5,NNW,12.7,19.6,0.00,Fog-Snow,Snow,330,2013-03-08 14:42:00
9:54 AM,30.9,28.9,92,30.07,0.5,NNW,11.5,-,0.00,Fog-Snow,Snow,330,2013-03-08 14:54:00
10:09 AM,30.2,28.4,93,30.07,0.5,NNW,9.2,18.4,0.01,Fog-Snow,Snow,330,2013-03-08 15:09:00
10:54 AM,32.0,30.0,92,30.08,0.5,NNW,9.2,-,0.04,Fog-Snow,Snow,330,2013-03-08 15:54:00
11:54 AM,33.1,30.0,89,30.08,0.8,NNW,11.5,20.7,0.03,Snow,Light Snow,330,2013-03-08 16:54:00
12:05 PM,33.8,30.2,87,30.08,1.2,NNW,11.5,-,0.00,Snow,Light Snow,330,2013-03-08 17:05:00
12:14 PM,33.8,30.2,87,30.07,1.5,NNW,10.4,18.4,0.00,Snow,Light Snow,330,2013-03-08 17:14:00
12:23 PM,33.8,30.2,87,30.07,1.0,NNW,11.5,18.4,0.00,Snow,Light Snow,330,2013-03-08 17:23:00
12:32 PM,33.8,30.2,87,30.07,0.5,NNW,10.4,-,0.01,Fog-Snow,Snow,330,2013-03-08 17:32:00
12:45 PM,33.8,30.2,87,30.06,0.8,NNW,8.1,18.4,0.01,Snow,Light Snow,330,2013-03-08 17:45:00
12:54 PM,34.0,30.9,89,30.07,0.5,NNW,11.5,18.4,0.01,Fog-Snow,Snow,330,2013-03-08 17:54:00
1:40 PM,33.8,30.2,87,30.06,1.0,NNW,12.7,-,0.01,Snow,Light Snow,330,2013-03-08 18:40:00
1:47 PM,33.8,32.0,93,30.06,1.2,NW,8.1,17.3,0.01,Snow,Light Snow,320,2013-03-08 18:47:00
1:54 PM,34.0,32.0,92,30.06,1.5,NNW,9.2,-,0.02,Snow,Light Snow,330,2013-03-08 18:54:00
2:14 PM,33.8,32.0,93,30.06,2.5,NW,8.1,-,0.00,Snow,Light Snow,320,2013-03-08 19:14:00
2:41 PM,35.6,32.0,87,30.07,3.0,NNW,6.9,-,0.02,Snow,Light Snow,330,2013-03-08 19:41:00
2:54 PM,35.1,33.1,92,30.07,4.0,NW,5.8,-,0.02,Snow,Light Snow,320,2013-03-08 19:54:00
3:04 PM,35.6,33.8,93,30.07,4.0,NNW,6.9,-,0.01,Rain,Light Rain,330,2013-03-08 20:04:00
3:54 PM,37.0,33.1,86,30.08,8.0,NNW,8.1,-,0.02,Rain,Light Rain,340,2013-03-08 20:54:00
4:54 PM,37.9,33.1,83,30.10,10.0,North,3.5,-,0.01,,Overcast,350,2013-03-08 21:54:00
5:54 PM,39.9,33.1,77,30.12,10.0,Variable,3.5,-,N/A,,Overcast,0,2013-03-08 22:54:00
6:54 PM,41.0,30.0,65,30.14,10.0,North,8.1,-,N/A,,Overcast,350,2013-03-08 23:54:00
7:54 PM,39.9,30.0,68,30.18,10.0,NNW,6.9,-,N/A,,Overcast,330,2013-03-09 00:54:00
8:54 PM,41.0,27.0,57,30.19,10.0,NNW,12.7,-,N/A,,Overcast,340,2013-03-09 01:54:00
9:54 PM,39.9,26.1,58,30.21,10.0,NNW,10.4,-,N/A,,Overcast,340,2013-03-09 02:54:00
10:54 PM,39.9,26.1,58,30.21,10.0,NNW,11.5,-,N/A,,Overcast,340,2013-03-09 03:54:00
11:54 PM,39.0,25.0,57,30.21,10.0,NNW,11.5,-,N/A,,Overcast,340,2013-03-09 04:54:00